EW4964 Weather Reports


time (UTC)temp
F
wind
direction
speed
knots
gust
knots
rain 1hr
in
rain 24hr
in
rain mn
in
humidity
%
barometer
mb
20260905183007 57 357 2.6 7.0 0.00 0.13 0.13 34 1018.9
20260905181507 58 10 1.7 4.3 0.00 0.13 0.13 34 1019.0
20260905180007 58 9 1.7 4.3 0.00 0.13 0.13 34 1018.8
20260905171507 60 11 3.5 10.4 0.00 0.13 0.13 33 1018.1
20260905170006 61 6 2.6 6.1 0.00 0.13 0.13 34 1018.3
20260905164507 61 316 3.5 5.2 0.00 0.13 0.13 34 1017.8
20260905163007 61 240 2.6 7.0 0.00 0.13 0.13 34 1017.7
20260905161506 62 335 3.5 9.6 0.00 0.13 0.13 33 1017.8
20260905153007 63 72 4.3 10.4 0.00 0.13 0.13 29 1017.5
20260905151506 64 251 3.5 9.6 0.00 0.13 0.13 27 1017.5
20260905150007 64 327 4.3 9.6 0.00 0.13 0.13 28 1017.6
20260905144507 63 280 3.5 8.7 0.00 0.13 0.13 28 1017.5
20260905143007 64 290 7.0 18.2 0.00 0.13 0.13 27 1017.5
20260905140007 65 232 7.0 14.8 0.00 0.13 0.13 26 1017.7
20260905134506 66 254 5.2 12.2 0.00 0.13 0.13 25 1017.7
20260905133006 65 298 7.0 19.1 0.00 0.13 0.13 26 1017.6
20260905131506 64 284 7.8 14.8 0.00 0.13 0.13 26 1017.8
20260905130006 65 89 4.3 11.3 0.00 0.13 0.13 26 1017.9
20260905124506 64 270 6.1 14.8 0.00 0.13 0.13 26 1017.8
20260905123007 64 352 5.2 13.0 0.00 0.13 0.13 25 1017.8
20260905121506 64 302 4.3 10.4 0.00 0.13 0.13 27 1018.0
20260905120006 65 23 4.3 9.6 0.00 0.13 0.13 29 1017.7
20260905114506 64 76 4.3 9.6 0.00 0.13 0.13 29 1017.7
20260905113007 64 354 6.1 14.8 0.00 0.13 0.13 27 1017.9
20260905110006 62 276 4.3 13.0 0.00 0.13 0.13 31 1017.8
20260905104506 62 344 5.2 13.0 0.00 0.13 0.13 31 1017.7
20260905103006 61 250 7.0 13.0 0.00 0.13 0.13 34 1017.7
20260905101505 61 264 7.0 13.0 0.00 0.13 0.13 35 1017.8
20260905093005 58 261 3.5 9.6 0.01 0.13 0.13 45 1017.9
20260905091506 58 286 4.3 9.6 0.01 0.13 0.13 46 1017.9
20260905090005 57 305 4.3 8.7 0.01 0.13 0.13 51 1017.8
20260905084505 56 222 5.2 13.9 0.01 0.13 0.13 53 1017.5
20260905083006 55 297 3.5 7.0 0.00 0.12 0.12 61 1017.5
20260905081506 55 130 3.5 7.0 0.00 0.12 0.12 63 1017.6
20260905080006 54 35 3.5 7.8 0.00 0.12 0.12 64 1017.4
20260905073006 53 19 2.6 5.2 0.00 0.12 0.12 71 1017.0
20260905071505 53 243 2.6 5.2 0.00 0.12 0.12 75 1016.7
20260905070006 52 292 4.3 11.3 0.00 0.12 0.12 75 1016.9
20260905064505 51 292 4.3 8.7 0.00 0.12 0.12 75 1016.9
20260905063006 51 263 4.3 9.6 0.00 0.12 0.12 74 1017.0
20260905060005 51 252 3.5 7.0 0.05 0.12 0.12 71 1016.4
20260905054505 51 252 5.2 8.7 0.07 0.12 0.12 67 1015.5
20260905053005 51 284 3.5 7.0 0.08 0.12 0.12 65 1016.0
20260905051505 52 353 3.5 6.1 0.06 0.09 0.09 62 1016.0
20260905050005 53 304 3.5 9.6 0.04 0.07 0.07 58 1016.1
20260905044505 54 2 3.5 7.8 0.01 0.05 0.05 55 1016.3
20260905041505 54 312 2.6 7.0 0.01 0.04 0.04 61 1015.8
20260905040005 55 293 1.7 5.2 0.02 0.04 0.04 61 1015.2
20260905034505 55 336 1.7 3.5 0.02 0.04 0.04 61 1015.3
20260905030005 56 295 1.7 5.2 0.01 0.01 0.01 56 1015.3
20260905024504 56 333 2.6 6.1 0.00 0.00 0.00 53 1014.8
20260905023005 57 333 4.3 10.4 0.00 0.00 0.00 51 1014.8
20260905021505 57 326 2.6 8.7 0.00 0.00 0.00 48 1014.3
20260905020005 57 339 2.6 7.8 0.00 0.00 0.00 47 1014.4
20260905013004 58 344 4.3 11.3 0.00 0.00 0.00 46 1014.1
20260905011504 58 12 4.3 9.6 0.00 0.00 0.00 45 1014.3
20260905010004 59 7 6.1 13.9 0.00 0.00 0.00 43 1014.1
20260905003008 60 329 7.0 13.0 0.00 0.00 0.00 42 1013.9
20260905000008 62 351 7.8 17.4 0.00 0.00 0.00 36 1013.5
20260904234508 65 338 4.3 18.2 0.00 0.00 0.00 33 1013.0
20260904233008 66 314 3.5 7.0 0.00 0.00 0.00 32 1012.1
20260904231508 66 291 4.3 7.0 0.00 0.00 0.00 32 1012.0
20260904230007 66 322 3.5 7.0 0.00 0.00 0.00 32 1012.0
20260904224508 66 317 4.3 8.7 0.00 0.00 0.00 32 1011.8
20260904221507 67 314 2.6 5.2 0.00 0.00 0.00 31 1012.0
20260904220011 67 314 3.5 7.0 0.00 0.00 0.00 31 1011.8
20260904214508 67 329 3.5 6.1 0.00 0.00 0.00 31 1011.8
20260904213008 67 314 3.5 7.8 0.00 0.00 0.00 31 1011.8
20260904211508 67 314 3.5 6.1 0.00 0.00 0.00 31 1011.9
20260904210008 68 323 3.5 5.2 0.00 0.00 0.00 31 1011.8
20260904203008 68 333 3.5 7.0 0.00 0.00 0.00 31 1011.9
20260904201508 68 1 3.5 7.0 0.00 0.00 0.00 31 1012.0
20260904200008 68 343 2.6 6.1 0.00 0.00 0.00 31 1012.1
20260904194507 68 314 2.6 3.5 0.00 0.00 0.00 31 1012.3
20260904193007 69 306 3.5 7.0 0.00 0.00 0.00 31 1012.1
20260904191507 69 307 2.6 6.1 0.00 0.00 0.00 31 1012.4
20260904190007 69 314 2.6 4.3 0.00 0.00 0.00 31 1012.6
20260904184507 69 292 2.6 5.2 0.00 0.00 0.00 31 1012.6